User: anonymous   Login
Location: Unspecified
(0.0000°N, 0.0000°E)
Time: 17:26:15
(UTC+00:00)
Language:

APRIZESAT 3 - Orbit

View from above orbital plane
View from above orbital plane
View from above satellite
View from above satellite

Ground track
Ground track

The orbit data is extracted from the following two-line orbital elements,

1 35686U 09041F   16122.53151301  .00000340  00000-0  43472-4 0  9994
2 35686  98.2426  99.6220 0072156 271.4209  87.8740 14.86845610366018
Epoch (UTC): 01 May 2016 12:45:22
Eccentricity: 0.0072156
inclination: 98.2426°
perigee height: 557 km
apogee height: 658 km
right ascension of ascending node: 99.6220°
argument of perigee: 271.4209°
revolutions per day: 14.86845610
mean anomaly at epoch: 87.8740°
orbit number at epoch: 36601

The dashed part of the orbit path shows where the satellite is in the earth's shadow,  

DLR